SXEIN LGAV-LGSK

Flight info

Callsign SXEIN
Flight time 0h 31m
Altitude 9500
Route VFR VRP AGIOS THOMAS VRP STAVROS
Aircraft K100/L-SDE/L

Departure

Time 2026-04-21 12:36
Airport Athens Eleftherios Venizelos International Airport (LGAV)

Arrival

Time 2026-04-21 13:07
Airport Skiathos Island National Airport (LGSK)
Time Latitude Longitude Altitude Speed Heading
2026-04-21 12:21 37.92308 23.93764 298 ft 0 kts 37°
2026-04-21 12:27 37.92318 23.93773 298 ft 5 kts 40°
2026-04-21 12:27 37.92325 23.93798 300 ft 0 kts 71°
2026-04-21 12:28 37.92326 23.93799 300 ft 2 kts 71°
2026-04-21 12:28 37.92352 23.93846 298 ft 11 kts 49°
2026-04-21 12:29 37.92397 23.93910 300 ft 0 kts 49°
2026-04-21 12:29 37.92414 23.93941 298 ft 9 kts 55°
2026-04-21 12:29 37.92481 23.94021 301 ft 17 kts 35°
2026-04-21 12:30 37.92580 23.94121 300 ft 13 kts 39°
2026-04-21 12:30 37.92600 23.94247 299 ft 18 kts 85°
2026-04-21 12:30 37.92701 23.94371 300 ft 24 kts 33°
2026-04-21 12:30 37.92845 23.94512 300 ft 29 kts 39°
2026-04-21 12:31 37.93017 23.94682 297 ft 34 kts 37°
2026-04-21 12:31 37.93197 23.94879 295 ft 36 kts 31°
2026-04-21 12:31 37.93412 23.95059 296 ft 39 kts 37°
2026-04-21 12:31 37.93628 23.95266 293 ft 37 kts 38°
2026-04-21 12:32 37.93846 23.95470 294 ft 38 kts 38°
2026-04-21 12:32 37.94033 23.95644 293 ft 35 kts 37°
2026-04-21 12:32 37.94232 23.95835 294 ft 35 kts 41°
2026-04-21 12:32 37.94432 23.96022 295 ft 28 kts 39°
2026-04-21 12:33 37.94569 23.96154 297 ft 27 kts 34°
2026-04-21 12:33 37.94727 23.96305 296 ft 30 kts 36°
2026-04-21 12:33 37.94904 23.96468 298 ft 33 kts 36°
2026-04-21 12:33 37.95096 23.96649 299 ft 36 kts 37°
2026-04-21 12:34 37.95240 23.96792 299 ft 22 kts 39°
2026-04-21 12:34 37.95288 23.96918 301 ft 14 kts 124°
2026-04-21 12:34 37.95230 23.97009 306 ft 13 kts 142°
2026-04-21 12:34 37.95172 23.97006 306 ft 0 kts 220°
2026-04-21 12:35 37.95168 23.97001 307 ft 8 kts 219°
2026-04-21 12:35 37.94902 23.96750 304 ft 85 kts 212°
2026-04-21 12:35 37.94344 23.96169 420 ft 116 kts 224°
2026-04-21 12:35 37.93692 23.95434 590 ft 133 kts 219°
2026-04-21 12:36 37.93215 23.94556 1095 ft 127 kts 273°
2026-04-21 12:36 37.93749 23.93509 1192 ft 155 kts 316°
2026-04-21 12:36 37.94568 23.92530 1263 ft 164 kts 313°
2026-04-21 12:36 37.95211 23.91372 1388 ft 160 kts 294°
2026-04-21 12:37 37.95620 23.90054 1485 ft 163 kts 293°
2026-04-21 12:37 37.95969 23.89188 1497 ft 167 kts 298°
2026-04-21 12:37 37.96714 23.88064 1610 ft 167 kts 322°
2026-04-21 12:37 37.97699 23.87364 1930 ft 158 kts 334°
2026-04-21 12:38 37.98648 23.86751 2289 ft 152 kts 328°
2026-04-21 12:38 37.99582 23.86071 2449 ft 159 kts 331°
2026-04-21 12:38 38.00653 23.85523 2402 ft 176 kts 343°
2026-04-21 12:38 38.01833 23.85247 2714 ft 166 kts
2026-04-21 12:39 38.02863 23.85807 3033 ft 168 kts 25°
2026-04-21 12:39 38.04021 23.85892 3137 ft 174 kts 351°
2026-04-21 12:39 38.05202 23.85855 3447 ft 162 kts
2026-04-21 12:39 38.06299 23.85955 3877 ft 158 kts
2026-04-21 12:40 38.07418 23.86126 4015 ft 172 kts
2026-04-21 12:40 38.08579 23.86518 4272 ft 178 kts 20°
2026-04-21 12:40 38.09779 23.87153 3979 ft 192 kts 25°
2026-04-21 12:40 38.10909 23.87929 4281 ft 175 kts 33°
2026-04-21 12:41 38.11855 23.88786 4776 ft 162 kts 37°
2026-04-21 12:41 38.12764 23.89600 5185 ft 155 kts 30°
2026-04-21 12:41 38.13780 23.90012 5481 ft 154 kts
2026-04-21 12:41 38.14867 23.90156 5743 ft 156 kts
2026-04-21 12:42 38.15930 23.90057 5911 ft 159 kts 345°
2026-04-21 12:42 38.16998 23.89736 6186 ft 152 kts 342°
2026-04-21 12:42 38.18039 23.89382 6264 ft 163 kts 344°
2026-04-21 12:42 38.19153 23.89064 6454 ft 162 kts 340°
2026-04-21 12:43 38.20231 23.88579 6346 ft 175 kts 332°
2026-04-21 12:43 38.21297 23.87953 6535 ft 165 kts 336°
2026-04-21 12:43 38.22413 23.87561 6620 ft 166 kts 338°
2026-04-21 12:43 38.23473 23.86970 6638 ft 167 kts 326°
2026-04-21 12:44 38.24427 23.86148 6670 ft 168 kts 323°
2026-04-21 12:44 38.25600 23.85674 6518 ft 181 kts 346°
2026-04-21 12:44 38.26818 23.85604 6714 ft 176 kts
2026-04-21 12:44 38.28027 23.85878 6812 ft 176 kts
2026-04-21 12:45 38.29226 23.86167 6915 ft 175 kts
2026-04-21 12:45 38.30427 23.86456 6970 ft 177 kts
2026-04-21 12:45 38.31640 23.86730 7039 ft 175 kts
2026-04-21 12:45 38.32830 23.86606 7094 ft 171 kts 346°
2026-04-21 12:46 38.34016 23.86355 7132 ft 171 kts 346°
2026-04-21 12:46 38.35185 23.86115 7225 ft 170 kts 346°
2026-04-21 12:46 38.36345 23.85883 7271 ft 171 kts 346°
2026-04-21 12:46 38.37525 23.85646 7321 ft 172 kts 346°
2026-04-21 12:47 38.38706 23.85404 7385 ft 172 kts 346°
2026-04-21 12:47 38.39884 23.85158 7443 ft 172 kts 346°
2026-04-21 12:47 38.41084 23.84910 7510 ft 173 kts 346°
2026-04-21 12:47 38.42273 23.84671 7565 ft 173 kts 346°
2026-04-21 12:48 38.43463 23.84435 7614 ft 173 kts 346°
2026-04-21 12:48 38.44657 23.84200 7655 ft 174 kts 347°
2026-04-21 12:48 38.45824 23.83867 7726 ft 171 kts 337°
2026-04-21 12:48 38.46925 23.83376 7832 ft 170 kts 336°
2026-04-21 12:49 38.48040 23.82874 7919 ft 170 kts 336°
2026-04-21 12:49 38.49160 23.82376 7998 ft 171 kts 336°
2026-04-21 12:49 38.50283 23.81875 8043 ft 171 kts 336°
2026-04-21 12:49 38.51408 23.81382 8077 ft 171 kts 336°
2026-04-21 12:50 38.52532 23.80880 8143 ft 171 kts 336°
2026-04-21 12:50 38.53654 23.80369 8210 ft 171 kts 336°
2026-04-21 12:50 38.54777 23.79859 8266 ft 171 kts 336°
2026-04-21 12:50 38.55899 23.79353 8321 ft 171 kts 336°
2026-04-21 12:51 38.57024 23.78847 8382 ft 171 kts 336°
2026-04-21 12:51 38.58145 23.78346 8446 ft 170 kts 336°
2026-04-21 12:51 38.59270 23.77838 8442 ft 173 kts 336°
2026-04-21 12:51 38.60407 23.77324 8443 ft 174 kts 336°
2026-04-21 12:52 38.61552 23.76808 8442 ft 175 kts 336°
2026-04-21 12:52 38.62699 23.76296 8438 ft 174 kts 336°
2026-04-21 12:52 38.63836 23.75785 8441 ft 173 kts 336°
2026-04-21 12:52 38.64981 23.75270 8439 ft 175 kts 336°
2026-04-21 12:53 38.66132 23.74753 8444 ft 176 kts 336°
2026-04-21 12:53 38.67285 23.74224 8442 ft 176 kts 336°
2026-04-21 12:53 38.68441 23.73688 8444 ft 178 kts 336°
2026-04-21 12:53 38.69608 23.73145 8448 ft 179 kts 336°
2026-04-21 12:54 38.70778 23.72595 8372 ft 180 kts 336°
2026-04-21 12:54 38.71975 23.72026 8114 ft 184 kts 336°
2026-04-21 12:54 38.73180 23.71451 7920 ft 186 kts 335°
2026-04-21 12:54 38.74404 23.70885 7720 ft 187 kts 336°
2026-04-21 12:55 38.75626 23.70327 7516 ft 186 kts 336°
2026-04-21 12:55 38.76854 23.69755 7249 ft 189 kts 336°
2026-04-21 12:55 38.78068 23.69193 6953 ft 183 kts 337°
2026-04-21 12:55 38.79261 23.68636 6660 ft 182 kts 335°
2026-04-21 12:56 38.80449 23.68086 6370 ft 182 kts 338°
2026-04-21 12:56 38.81688 23.67722 6070 ft 183 kts 347°
2026-04-21 12:56 38.82948 23.67447 5767 ft 184 kts 347°
2026-04-21 12:56 38.84217 23.67179 5466 ft 185 kts 346°
2026-04-21 12:57 38.85473 23.66914 5174 ft 185 kts 345°
2026-04-21 12:57 38.86744 23.66629 4943 ft 183 kts 347°
2026-04-21 12:57 38.87971 23.66365 4944 ft 176 kts 346°
2026-04-21 12:57 38.89172 23.66108 4946 ft 174 kts 346°
2026-04-21 12:58 38.90390 23.65846 4841 ft 177 kts 346°
2026-04-21 12:58 38.91596 23.65588 4843 ft 175 kts 346°
2026-04-21 12:58 38.92796 23.65331 4804 ft 176 kts 346°
2026-04-21 12:58 38.94052 23.65094 4478 ft 186 kts 353°
2026-04-21 12:59 38.95340 23.65059 4147 ft 184 kts 356°
2026-04-21 12:59 38.96623 23.65053 3818 ft 185 kts 356°
2026-04-21 12:59 38.97908 23.65024 3502 ft 184 kts 354°
2026-04-21 12:59 38.99187 23.64925 3184 ft 184 kts 353°
2026-04-21 13:00 39.00459 23.64778 2863 ft 182 kts 347°
2026-04-21 13:00 39.01705 23.64470 2542 ft 183 kts 345°
2026-04-21 13:00 39.02951 23.64139 2220 ft 182 kts 345°
2026-04-21 13:00 39.04191 23.63798 1934 ft 180 kts 345°
2026-04-21 13:01 39.05377 23.63464 1929 ft 171 kts 345°
2026-04-21 13:01 39.06529 23.63137 1928 ft 169 kts 345°
2026-04-21 13:01 39.07694 23.62812 1928 ft 173 kts 345°
2026-04-21 13:01 39.08877 23.62488 1929 ft 174 kts 345°
2026-04-21 13:02 39.10073 23.62164 1926 ft 177 kts 346°
2026-04-21 13:02 39.11277 23.61833 1926 ft 177 kts 345°
2026-04-21 13:02 39.13685 23.61174 1926 ft 176 kts 345°
2026-04-21 13:03 39.14886 23.60841 1923 ft 177 kts 345°
2026-04-21 13:03 39.16092 23.60506 1925 ft 177 kts 345°
2026-04-21 13:03 39.17294 23.60170 1924 ft 177 kts 345°
2026-04-21 13:03 39.18495 23.59823 1925 ft 177 kts 345°
2026-04-21 13:04 39.19702 23.59479 1925 ft 180 kts 345°
2026-04-21 13:04 39.20908 23.59044 1813 ft 181 kts 329°
2026-04-21 13:04 39.21811 23.58006 1885 ft 170 kts 299°
2026-04-21 13:04 39.22293 23.56647 1861 ft 171 kts 288°
2026-04-21 13:05 39.22636 23.55157 1412 ft 175 kts 276°
2026-04-21 13:05 39.22417 23.53658 1025 ft 166 kts 234°
2026-04-21 13:05 39.21679 23.52618 645 ft 141 kts 221°
2026-04-21 13:05 39.20995 23.51919 609 ft 115 kts 208°
2026-04-21 13:06 39.20285 23.51482 434 ft 115 kts 197°
2026-04-21 13:06 39.19546 23.51197 366 ft 115 kts 198°
2026-04-21 13:06 39.18826 23.50864 163 ft 100 kts 198°
2026-04-21 13:06 39.18304 23.50631 74 ft 70 kts 200°
2026-04-21 13:07 39.17962 23.50483 41 ft 26 kts 212°
2026-04-21 13:07 39.17789 23.50388 37 ft 40 kts 204°
2026-04-21 13:07 39.17693 23.50306 37 ft 9 kts 263°
2026-04-21 13:07 39.17693 23.50275 36 ft 0 kts 263°
2026-04-21 13:08 39.17682 23.50263 35 ft 7 kts 198°
2026-04-21 13:08 39.17639 23.50221 33 ft 5 kts 281°
2026-04-21 13:08 39.17651 23.50180 31 ft 0 kts 293°
2026-04-21 13:08 39.17652 23.50176 31 ft 1 kts 293°
2026-04-21 13:09 39.17653 23.50174 31 ft 0 kts 293°